Vertical_Velocity
0 -1 -1 -2 -1 -1 0 -0 -1 -1 -1 -1 -1 -1 -0 -0 -0 -0 -1 -1 -0 -0 -0 -0 -1 -2 -1 -3 -3 -4 -2 0 1 2 -1 -4 -3 -2 -0 -0 -0 0 -0 0 0 -0 -1
-2 -2 -2 -1 -2 -1 0 1 -0 -0 -1 -1 -1 -1 -1 -1 -1 -1 -0 -1 -0 -0 -1 -1 -2 -1 -0 -1 2 3 1 -1 -1 -2 -2 0 1 0 -1 -1 -1 -1 -0 -2 -1 -1 0
-1 -1 -1 -3 -2 -0 -0 0 -1 -0 -1 -1 -1 -1 -0 -0 -0 -1 -0 -1 -1 -1 1 1 1 -1 0 -1 0 -0 -1 -2 -2 -3 -1 0 -1 1 -0 0 1 1 -1 -1 1 -0 -1
-0 1 -2 -1 -1 0 0 0 -1 -0 -1 -1 -0 -0 0 -1 -1 -1 -1 -2 -1 -1 0 -1 -1 2 1 1 2 3 1 0 0 1 -1 -1 -0 -0 -0 0 -1 -1 -3 -2 -1 1 0
0 -2 0 -0 -1 -1 -1 -1 -1 1 0 0 -0 -1 -1 -1 -1 -0 -1 -1 -0 -0 -0 -1 0 -1 0 1 0 0 0 1 1 -0 -1 -1 0 -1 -0 -2 -3 -3 -1 0 -7 -0 -0
3 3 -2 -0 -1 -1 0 -0 0 -1 0 1 -1 -1 1 -0 0 -0 -1 -2 -1 -0 -1 -1 -0 -1 1 0 1 1 0 0 0 0 1 1 -1 -2 -1 -2 -4 -2 0 -0 -1 -2 1
-1 -2 4 1 -1 -1 -1 -1 -0 -0 -0 -0 -0 -0 -1 -2 -1 -1 -2 -1 -1 -1 -0 0 1 1 0 0 -0 -0 -0 0 -0 -0 -1 -1 -5 -2 -3 -2 -0 -1 0 0 -2 -3 2
-6 3 -1 1 0 -2 -2 1 0 -1 -0 -1 -0 -1 -1 -1 -1 -0 -2 -1 0 2 -1 0 0 -0 -0 -0 -0 0 0 -0 -2 -0 -1 -5 -2 -2 -0 -0 -0 0 0 -3 -4 -1 2
3 -7 -3 -0 3 4 -2 -4 -1 -1 0 -0 -0 -1 -1 -1 -1 0 -2 -4 -2 -3 -3 0 -0 -1 -1 0 -0 -0 -0 -0 -1 -1 -0 -1 -2 -0 0 0 1 -0 -1 -1 -3 -1 -0
0 7 -1 -0 -6 -1 7 -0 -3 -4 -2 -0 -0 -1 -1 -1 -0 -1 -2 -1 -1 -2 -8 -8 -2 -1 0 -0 -1 -1 -1 -1 -0 -1 -0 -2 -2 0 0 -0 -3 1 -2 0 0 -1 -2
2 1 1 -1 -1 -3 -1 4 0 -1 -2 -3 -2 -1 -0 0 -1 -0 -1 -1 0 0 -10 -8 -2 -1 1 0 1 -2 2 2 -1 -1 -4 -19 -0 1 1 -6 -1 -9 -1 -1 -0 0 1
-2 3 -3 1 -0 -5 -3 -1 3 1 -1 -2 -2 -2 -1 -1 1 -1 1 -0 2 -24 -14 -2 -1 -2 -4 -1 -0 -0 0 1 3 1 1 -4 0 1 -8 -1 -1 -0 -0 -2 -1 -1 2
-5 -5 7 -1 -4 -5 4 -8 -3 4 -1 -0 -1 -0 -3 -1 -1 1 -1 -1 -18 -11 -9 -3 -2 -1 0 -2 -2 -1 -1 -3 -0 -5 -2 -2 -2 -1 -0 1 0 -1 -3 -3 -3 -1 -7
-4 -1 -2 3 -0 -3 -5 1 -1 -5 -0 0 -0 -1 -2 -1 -1 -1 -1 -11 -6 -3 0 -1 0 -1 1 -0 -1 -2 -1 -2 -3 -1 0 0 -16 -0 -0 -1 -2 -2 -6 -5 -2 -2 -5
-3 -2 1 1 -1 2 -3 -2 -1 -1 -2 -2 1 -3 -1 0 -0 -0 -2 -6 -2 1 1 0 -4 -1 -2 -1 -1 -3 -1 0 2 1 -0 -0 -6 -3 0 -0 -4 -2 -1 -7 0 -0 1
-2 -2 -3 1 -1 0 0 -4 -2 -1 -3 -1 -1 -0 -1 -0 -0 -2 -9 -2 -0 0 -0 -2 -0 -2 0 -1 -4 -4 -2 2 -1 2 2 -1 -4 -1 -3 -2 -2 -2 -2 -2 -2 0 -1
-1 -1 -5 3 -1 0 2 -4 1 -3 0 -0 1 -0 -0 -2 0 -2 -5 -1 0 2 1 -1 0 -0 1 0 1 -0 2 -1 -1 -3 -2 1 1 -15 -1 -1 2 -6 -4 -2 -1 1 2
1 -1 -1 -0 -4 2 0 0 -1 -2 -0 1 0 -5 -2 -2 -8 0 -1 0 1 -0 -0 -1 -3 -1 0 0 -0 0 0 -1 3 3 -0 -0 2 0 -4 -8 3 1 0 2 5 -10 -1
-4 -0 -0 -2 -1 -2 -2 0 -2 -2 -1 -1 -1 -2 -2 0 -4 -0 1 1 -1 -3 1 -1 -0 -1 -0 0 -1 -0 -0 1 -1 -1 2 -2 -3 -2 -20 -8 -5 -1 -4 1 2 3 -3
-3 2 1 -3 -0 1 -2 -4 1 -2 -1 -1 -2 -5 -3 -6 -0 -4 -1 1 1 -1 -0 -0 1 -3 -3 -2 -1 -0 -1 -0 -2 1 5 -4 -0 1 3 3 9 -1 -3 -3 6 7 -4
-1 1 2 -3 -3 2 -2 -3 1 -2 0 -2 -3 -0 0 -2 -3 -1 -3 -1 -0 -1 -0 -0 1 -1 -0 -0 -1 -0 -0 -3 -5 -1 -0 -4 0 3 -3 -1 4 2 2 -2 7 -4 13
-3 -2 4 -1 -5 3 -3 -6 -8 1 -1 -2 -3 -4 -0 -0 1 -2 -1 1 -0 -0 -2 1 -3 -0 -0 -1 -3 -2 -0 0 -3 -3 -1 -1 -4 1 -5 -3 2 1 -1 -0 0 -4 -1
-4 -5 9 -1 -5 2 -3 -0 -1 -3 -3 -3 -1 -1 1 1 0 -3 -0 0 0 -0 2 -0 -1 0 -0 -1 1 -1 0 1 -4 1 -0 1 1 1 -4 0 -1 -1 2 2 1 -0 8
1 -8 2 3 -1 -3 -3 -1 -8 -2 -5 -4 -4 -3 -2 1 -2 -0 -0 -1 -0 -0 -1 1 -1 -0 -0 0 -3 3 2 4 3 -2 -1 -1 1 1 -2 -2 -3 4 1 3 -1 3 -1
7 -6 1 2 -3 -2 -5 0 -5 -5 -6 -4 -3 -0 -2 0 -1 1 0 -1 0 -0 -0 -0 0 2 -1 -1 -4 -3 -5 -4 -0 -0 1 -0 -0 -1 1 0 -5 -2 -2 2 3 2 4
4 -1 -0 -1 0 -3 -4 -3 -3 -2 -4 -1 -5 -3 -4 -14 -3 -1 -1 0 -1 -0 -2 -1 1 -1 -1 -0 -0 -0 -1 0 -3 -8 0 2 -0 -2 -1 2 0 1 -4 5 2 3 3
-2 3 -1 1 -3 3 -3 -2 -4 -4 -6 -2 -6 -2 -4 -6 -1 -0 -2 -3 0 0 -2 -0 -1 -1 -0 -0 0 0 -2 -2 -2 -1 -1 -1 -1 -2 -1 -0 -5 1 -1 5 -8 -3 -2
5 -2 -3 -1 -2 1 -5 -6 -5 -3 -3 -2 -3 -3 -5 -3 1 1 1 -3 -1 -1 -2 -0 -7 -3 -2 -2 0 -1 -0 -3 -0 -2 1 0 1 -0 -1 -1 -7 -1 -5 -11 -4 -9 2
-8 -1 4 1 2 -1 -6 -6 -5 -3 -3 -3 -5 -2 -6 -5 -1 1 1 -1 -2 -1 -4 -2 0 -1 -0 -2 1 1 -0 -1 -1 1 -1 2 4 2 3 2 0 5 -2 -1 0 1 -4
Height
1539 1539 1539 1538 1538 1538 1536 1536 1534 1533 1532 1530 1529 1527 1524 1523 1521 1519 1517 1515 1513 1512 1510 1509 1507 1507 1506 1507 1508 1508 1508 1509 1509 1508 1507 1507 1508 1510 1512 1512 1512 1511 1509 1508 1507 1508 1509
1539 1539 1538 1538 1537 1537 1536 1535 1534 1532 1530 1529 1527 1525 1523 1521 1519 1517 1516 1513 1511 1509 1508 1507 1505 1505 1505 1506 1505 1506 1507 1507 1508 1508 1507 1507 1507 1507 1508 1510 1511 1511 1510 1508 1505 1505 1505
1538 1538 1538 1538 1537 1537 1536 1534 1533 1531 1529 1528 1525 1523 1521 1519 1517 1515 1513 1511 1509 1507 1505 1504 1503 1502 1503 1505 1504 1505 1506 1506 1507 1507 1508 1507 1507 1508 1508 1510 1510 1509 1508 1503 1501 1502 1503
1539 1539 1538 1537 1537 1536 1535 1534 1532 1530 1528 1526 1524 1521 1519 1517 1515 1513 1511 1509 1507 1505 1503 1502 1501 1501 1502 1503 1504 1504 1505 1506 1506 1506 1506 1506 1506 1507 1508 1509 1509 1510 1511 1509 1499 1500 1500
1541 1540 1538 1537 1536 1535 1533 1532 1530 1529 1526 1524 1522 1519 1517 1515 1513 1510 1508 1507 1504 1502 1501 1500 1501 1501 1503 1504 1504 1504 1505 1505 1505 1505 1505 1505 1506 1508 1509 1510 1513 1515 1511 1512 1504 1498 1500
1540 1539 1538 1536 1535 1534 1532 1530 1529 1527 1525 1522 1520 1518 1515 1513 1510 1507 1505 1504 1502 1501 1501 1501 1501 1504 1505 1505 1504 1504 1504 1504 1504 1504 1504 1504 1505 1508 1512 1512 1514 1509 1512 1513 1509 1499 1499
1540 1539 1538 1536 1534 1533 1531 1529 1528 1525 1523 1521 1518 1516 1514 1511 1508 1506 1504 1503 1504 1502 1501 1501 1503 1503 1504 1504 1504 1504 1504 1504 1504 1504 1505 1506 1508 1508 1505 1506 1505 1506 1511 1511 1503 1497 1497
1539 1539 1537 1535 1533 1532 1529 1528 1526 1524 1522 1520 1517 1514 1512 1509 1507 1504 1503 1502 1503 1505 1503 1502 1502 1503 1503 1504 1504 1504 1505 1505 1505 1507 1506 1510 1508 1502 1501 1504 1506 1509 1509 1508 1500 1495 1496
1539 1537 1536 1535 1533 1530 1529 1527 1524 1523 1521 1518 1516 1513 1511 1508 1505 1504 1502 1503 1503 1503 1504 1505 1504 1503 1504 1504 1504 1504 1505 1505 1506 1508 1508 1509 1503 1502 1502 1503 1505 1507 1507 1503 1498 1495 1495
1538 1536 1534 1533 1530 1529 1528 1526 1524 1522 1520 1518 1515 1513 1510 1507 1507 1503 1503 1502 1502 1502 1510 1509 1505 1505 1505 1503 1505 1504 1503 1505 1505 1507 1507 1508 1501 1500 1501 1502 1503 1504 1494 1495 1496 1498 1498
1538 1535 1533 1531 1530 1528 1527 1525 1523 1521 1520 1517 1515 1512 1509 1506 1505 1504 1505 1502 1502 1502 1535 1509 1506 1506 1504 1504 1503 1503 1502 1502 1502 1503 1507 1501 1497 1498 1499 1495 1495 1494 1492 1494 1496 1499 1499
1536 1534 1532 1530 1528 1527 1526 1525 1523 1520 1518 1516 1514 1511 1509 1507 1505 1504 1503 1502 1503 1517 1535 1509 1507 1507 1505 1502 1503 1502 1503 1503 1502 1502 1501 1499 1495 1493 1488 1486 1488 1489 1491 1498 1503 1504 1502
1533 1533 1530 1528 1527 1526 1525 1524 1523 1520 1517 1514 1512 1511 1509 1507 1506 1503 1503 1504 1519 1529 1513 1515 1513 1511 1512 1508 1505 1505 1505 1506 1510 1511 1504 1500 1492 1485 1485 1487 1488 1489 1496 1504 1502 1507 1487
1530 1530 1529 1527 1525 1524 1524 1523 1520 1519 1516 1513 1511 1510 1509 1506 1505 1503 1503 1506 1521 1518 1517 1517 1514 1514 1510 1512 1509 1509 1509 1516 1514 1514 1513 1512 1498 1484 1483 1483 1483 1490 1491 1500 1496 1495 1481
1528 1528 1527 1527 1525 1523 1521 1521 1519 1516 1515 1513 1510 1509 1508 1506 1504 1503 1505 1526 1527 1522 1523 1522 1516 1513 1513 1514 1515 1511 1521 1529 1527 1525 1521 1515 1499 1486 1483 1481 1483 1486 1491 1484 1485 1494 1496
1527 1526 1526 1524 1524 1522 1520 1519 1517 1515 1513 1511 1509 1507 1507 1506 1504 1504 1507 1521 1523 1523 1523 1521 1519 1520 1519 1524 1520 1521 1518 1536 1533 1530 1527 1524 1517 1493 1487 1484 1483 1484 1485 1485 1490 1485 1473
1524 1525 1524 1523 1522 1521 1518 1516 1515 1512 1510 1509 1507 1506 1507 1506 1505 1505 1519 1522 1522 1523 1522 1523 1522 1523 1528 1530 1529 1524 1527 1541 1535 1531 1529 1531 1527 1494 1492 1489 1491 1490 1489 1487 1487 1483 1467
1523 1523 1522 1522 1521 1519 1516 1514 1513 1510 1508 1507 1506 1507 1506 1505 1509 1515 1521 1521 1523 1524 1523 1524 1525 1527 1529 1530 1528 1526 1532 1536 1536 1534 1536 1533 1531 1517 1497 1493 1494 1492 1492 1492 1487 1478 1472
1521 1522 1522 1521 1519 1518 1515 1513 1510 1508 1505 1505 1504 1505 1506 1505 1514 1522 1522 1524 1526 1525 1528 1528 1532 1532 1532 1533 1533 1531 1534 1537 1536 1536 1536 1532 1531 1526 1498 1492 1499 1507 1503 1505 1509 1496 1474
1519 1520 1519 1519 1518 1516 1513 1510 1508 1506 1504 1504 1505 1508 1507 1506 1514 1517 1523 1526 1528 1529 1530 1532 1535 1534 1535 1537 1536 1537 1536 1535 1534 1533 1532 1530 1535 1534 1534 1527 1523 1515 1508 1500 1509 1510 1494
1518 1519 1518 1517 1518 1514 1511 1508 1506 1504 1502 1503 1505 1511 1513 1519 1521 1521 1522 1527 1529 1531 1531 1532 1536 1539 1539 1540 1540 1539 1537 1537 1535 1532 1532 1535 1538 1533 1528 1522 1515 1512 1506 1502 1500 1494 1493
1517 1518 1516 1515 1516 1514 1511 1508 1506 1503 1501 1502 1505 1509 1514 1520 1521 1523 1527 1532 1531 1533 1534 1535 1536 1537 1537 1539 1538 1540 1538 1539 1538 1533 1534 1534 1533 1527 1526 1514 1511 1505 1502 1504 1492 1491 1479
1515 1517 1516 1514 1513 1512 1510 1509 1506 1503 1501 1502 1504 1508 1510 1523 1524 1525 1531 1531 1532 1532 1535 1535 1537 1538 1537 1536 1534 1531 1531 1531 1532 1533 1534 1534 1533 1528 1523 1514 1508 1509 1511 1508 1508 1509 1502
1513 1517 1517 1514 1513 1512 1511 1508 1507 1505 1502 1504 1504 1508 1510 1524 1524 1527 1530 1530 1533 1534 1535 1535 1536 1536 1537 1535 1531 1525 1524 1523 1526 1527 1529 1532 1533 1525 1520 1513 1526 1512 1512 1511 1515 1515 1513
1513 1515 1517 1513 1513 1513 1512 1510 1509 1509 1508 1508 1507 1509 1510 1522 1524 1529 1530 1530 1532 1533 1535 1535 1536 1536 1533 1532 1532 1530 1527 1524 1522 1522 1524 1527 1530 1526 1525 1522 1511 1512 1514 1516 1516 1516 1516
1512 1515 1515 1514 1513 1513 1513 1512 1513 1512 1512 1511 1510 1510 1511 1518 1526 1526 1530 1531 1533 1534 1534 1534 1535 1534 1534 1533 1533 1534 1532 1526 1527 1525 1521 1524 1528 1531 1525 1521 1519 1525 1518 1512 1511 1505 1516
1514 1515 1514 1514 1515 1513 1512 1514 1515 1515 1516 1515 1514 1513 1514 1517 1524 1526 1527 1530 1531 1533 1535 1534 1533 1533 1533 1534 1534 1534 1534 1531 1534 1531 1525 1527 1531 1533 1527 1530 1527 1528 1518 1508 1514 1519 1517
1513 1514 1514 1515 1515 1514 1515 1516 1517 1518 1518 1518 1517 1517 1517 1519 1525 1526 1527 1529 1531 1533 1536 1535 1535 1535 1535 1536 1536 1539 1538 1533 1531 1527 1525 1528 1531 1534 1534 1543 1533 1526 1519 1523 1531 1523 1519
1512 1516 1516 1514 1515 1513 1516 1518 1519 1519 1519 1519 1519 1519 1519 1520 1524 1526 1527 1529 1531 1532 1535 1535 1536 1536 1536 1538 1538 1534 1530 1531 1531 1523 1531 1528 1538 1535 1533 1527 1530 1529 1528 1528 1526 1522 1516